SCP
0 0 0 0 0 0 0 0 0 0 0 0 0 -0 -0 0 0 0 0 0 0 0 0 -0 -0 -0 -0 0 0 -0 -0 -0 -0 -0 -0 -0 0 0 -0 -0 0 0 0 0 0 0 0 0 0
0 0 0 0 0 0 0 0 0 0 0 0 0 0 0 0 0 -0 0 0 0 0 0 0 -0 -0 -0 -0 0 -0 -0 -0 -0 -0 -0 0 -0 -0 -0 -0 0 -0 -0 -0 0 0 0 0 0
0 0 0 0 0 0 0 0 0 0 0 0 0 0 -0 -0 -0 0 0 0 0 0 0 0 -0 -0 -0 -0 -0 0 -0 0 0 0 -0 -0 -0 -0 -0 -0 -0 -0 -0 -0 -0 0 0 0 0
0 0 0 0 0 0 0 0 0 0 0 0 0 0 0 0 -0 -0 -0 -0 0 0 0 0 0 -0 -0 -0 -0 -0 -0 -0 -0 0 -0 -0 -0 -0 -0 -0 -0 -0 -0 -0 0 0 0 0 0
0 0 0 0 0 0 -0 -0 0 0 0 0 0 0 0 0 0 0 0 0 0 0 0 0 0 0 -0 -0 -0 0 0 -0 -0 -0 -0 -0 -0 -0 -0 -0 -0 -0 -0 0 0 0 0 0 0
0 0 0 0 0 0 0 -0 0 0 0 0 0 0 -0 0 0 0 0 0 0 0 0 0 0 0 0 0 0 0 -0 -0 -0 -0 -0 -0 -0 -0 -0 -0 -0 0 0 0 0 0 0 0 0
0 0 0 0 0 -0 -0 0 0 0 0 0 -0 0 0 0 0 0 0 0 0 0 0 0 0 0 0 0 0 0 0 -0 -0 -0 -0 -0 -0 -0 -0 -0 -0 0 0 0 0 0 0 0 0
0 0 0 0 0 0 -0 0 0 0 0 0 0 0 0 -0 0 0 0 0 0 0 0 0 0 0 0 0 0 0 0 0 -0 -0 -0 -0 -0 -0 -0 0 0 0 0 0 0 0 0 0 0
0 0 0 0 0 0 0 0 0 0 0 0 0 0 -0 0 0 0 0 0 0 0 0 0 0 0 0 0 0 0 0 0 0 0 0 0 0 0 0 0 0 0 0 0 0 0 0 0 0
0 0 0 0 0 0 0 0 0 0 0 0 0 0 0 0 0 0 0 0 0 0 0 0 0 0 0 0 0 0 0 0 0 0 0 0 0 0 0 0 0 0 0 0 0 0 0 0 0
0 0 0 0 0 0 0 0 0 0 0 0 0 0 0 0 0 0 0 0 0 0 0 0 0 0 0 0 0 0 0 0 0 0 0 0 0 0 0 0 0 0 0 0 0 0 0 0 0
0 0 0 0 0 0 0 0 0 0 -0 0 0 0 0 0 0 0 0 0 0 0 0 0 0 0 0 0 0 0 0 0 0 0 0 0 0 0 0 0 0 0 0 0 0 0 0 0 0
0 0 0 0 0 0 0 0 0 0 0 0 0 0 0 0 0 0 0 0 0 0 0 0 0 0 0 0 0 0 0 0 0 0 0 0 0 0 0 0 0 0 0 0 0 0 0 0 0
0 0 0 0 0 0 0 0 0 0 0 0 0 0 0 0 0 0 0 0 0 0 0 0 0 0 0 0 0 0 0 0 0 0 0 0 0 0 0 0 0 0 0 0 0 0 0 0 0
0 0 0 0 0 0 0 0 0 0 0 0 0 0 0 0 0 0 0 0 0 0 0 0 0 0 0 0 0 0 0 0 0 0 0 0 0 0 0 0 0 0 0 0 0 0 0 0 0
0 0 0 0 0 0 0 0 0 0 0 0 0 0 0 0 0 0 0 0 0 0 0 0 0 0 0 0 0 0 0 0 0 0 0 0 0 0 0 0 0 0 0 0 0 0 0 0 0
0 0 0 0 0 0 0 0 0 0 0 0 0 0 0 0 0 0 0 0 0 0 0 0 0 0 0 0 0 0 0 0 0 0 0 0 0 0 0 0 0 0 0 0 0 0 0 0 0
0 0 0 0 0 0 0 0 0 0 0 0 0 0 0 0 0 0 0 0 0 0 0 0 0 0 0 0 0 0 0 0 0 0 0 0 0 0 0 0 0 0 0 0 0 0 0 0 0
0 0 0 0 0 0 0 0 0 0 0 0 0 0 0 0 0 0 0 0 0 0 0 0 0 0 0 0 0 0 0 0 0 0 0 0 0 0 0 0 0 0 0 0 0 0 0 0 0
0 0 0 0 0 0 0 0 0 0 0 0 0 0 0 0 0 0 0 0 0 0 0 0 0 0 0 0 0 0 0 0 0 0 0 0 0 0 0 0 0 0 0 0 0 0 0 0 0
0 0 0 0 0 0 0 0 0 0 0 0 0 0 0 0 0 0 0 0 0 0 0 0 0 0 0 0 0 0 0 0 0 0 0 0 0 0 0 0 0 0 0 0 0 0 0 0 0
0 0 0 0 0 0 0 -0 0 0 0 0 0 0 0 0 0 0 0 0 0 0 0 0 0 0 0 0 0 0 0 0 0 0 0 0 0 0 0 0 0 0 0 0 0 0 0 0 0
0 0 0 0 0 0 0 0 -0 0 0 0 -0 0 0 0 0 0 0 0 0 0 0 0 0 0 0 0 0 0 0 0 0 0 0 0 0 0 0 0 0 0 0 0 0 0 0 0 0
0 0 0 0 0 0 0 0 -0 0 0 0 0 0 0 0 0 0 0 0 0 0 0 0 0 0 0 0 0 0 0 0 0 0 0 0 0 0 0 0 0 0 0 0 0 0 0 0 0
0 0 0 0 0 0 0 0 0 0 0 0 0 0 0 0 0 0 0 0 0 0 0 0 0 0 0 0 0 0 0 0 0 0 0 0 0 0 0 0 0 0 0 0 0 0 0 0 0
0 0 0 0 0 0 0 0 0 0 0 0 0 0 0 0 0 0 0 0 0 0 0 0 0 0 0 0 0 0 0 0 0 0 0 0 0 0 0 0 0 0 0 0 0 0 0 0 0
0 0 0 0 0 0 0 0 0 0 0 0 0 0 0 0 0 0 0 0 0 0 0 0 0 0 0 0 0 0 0 0 0 0 0 0 0 0 0 0 0 0 0 0 0 0 0 0 0
0 0 0 0 0 0 0 0 0 0 0 0 0 0 0 0 0 0 0 0 0 0 0 0 0 0 0 0 0 0 0 0 0 0 0 0 0 0 0 0 0 0 0 0 0 0 0 0 0
0 0 0 0 0 0 0 0 0 0 0 0 0 0 0 0 0 0 0 0 0 0 0 0 0 0 0 0 0 0 0 0 0 0 0 0 0 0 0 0 0 0 0 0 0 0 0 0 0
0 0 0 0 0 0 0 0 0 0 0 0 0 0 0 0 0 0 0 0 0 0 0 0 0 0 0 0 0 0 0 0 0 0 0 0 0 0 0 0 0 0 0 0 0 0 0 0 0
Wind_Speed_500mb
25 5 2 2 7 9 2 6 3 5 6 11 17 18 18 11 5 5 23 42 33 44 42 38 31 27 31 34 32 26 22 23 24 18 17 17 17 16 16 17 21 24 23 24 24 24 25 24 23
20 2 3 2 8 6 8 3 7 4 16 33 33 22 8 4 10 18 46 33 24 44 42 39 34 32 31 33 33 28 21 21 21 18 15 13 13 13 13 13 17 19 19 19 20 22 22 21 21
16 3 1 7 6 8 9 7 12 13 17 11 9 15 8 13 16 30 32 39 36 46 41 40 34 31 31 33 34 33 28 19 16 14 13 13 12 10 9 10 11 15 16 15 16 17 17 17 17
13 3 4 6 3 6 10 15 10 17 12 9 20 12 7 7 24 33 38 39 38 46 41 39 35 32 29 30 31 31 28 23 18 13 11 11 12 10 8 6 6 9 12 12 12 11 12 12 13
8 3 4 2 7 3 2 22 25 9 14 16 15 7 6 20 20 29 43 40 41 50 44 41 35 31 28 26 28 29 28 25 21 18 15 13 13 13 11 9 6 6 7 7 6 6 6 6 6
6 4 5 1 4 5 4 22 19 11 13 17 14 21 13 24 25 30 40 38 39 48 47 41 36 32 29 27 27 29 28 26 23 20 17 18 17 16 14 12 10 8 5 5 5 5 3 3 2
6 6 5 8 6 6 10 20 15 15 15 10 27 10 9 30 31 30 41 36 32 39 47 41 37 33 30 28 27 28 28 26 24 23 21 21 21 19 17 15 13 12 10 9 9 9 8 7 7
7 7 5 6 6 6 7 12 14 25 9 17 16 14 13 39 35 43 40 35 31 33 39 41 39 35 33 31 30 29 27 25 23 21 22 22 19 16 16 16 15 13 12 11 11 11 11 11 11
5 6 2 8 11 3 10 4 6 11 18 5 8 14 9 37 52 51 49 44 40 38 36 39 40 37 35 34 34 34 33 30 28 26 23 20 20 17 17 16 15 13 12 12 12 13 13 14 14
6 6 9 3 2 5 10 9 14 8 10 5 10 14 18 40 65 64 61 58 53 48 43 40 42 40 39 38 37 37 37 35 33 32 31 28 26 25 22 21 20 18 17 15 14 15 16 16 16
8 9 8 2 10 13 5 3 9 15 6 19 28 29 36 42 56 65 61 58 54 49 46 45 44 44 42 41 39 39 39 39 38 38 36 34 33 32 29 26 24 22 21 20 20 19 18 18 18
5 15 7 5 8 3 3 8 6 19 13 7 28 31 41 47 50 61 64 60 57 52 50 44 41 47 45 42 42 40 41 41 42 41 40 40 38 37 34 31 29 28 27 24 22 21 21 21 22
8 5 7 7 13 12 11 11 8 18 19 21 15 39 44 46 46 46 55 56 54 53 51 50 47 51 49 48 45 44 43 44 42 43 43 43 42 40 38 37 35 32 31 29 28 27 27 27 26
6 4 6 5 12 11 6 5 3 16 21 19 22 35 51 50 49 48 57 60 60 57 55 51 52 54 49 49 48 47 44 42 43 46 46 45 44 43 43 43 41 39 38 35 34 33 33 32 31
8 5 8 7 10 9 1 9 19 44 32 18 25 36 51 54 51 53 49 57 57 57 57 57 54 54 56 55 53 50 46 47 48 47 46 46 45 46 46 47 47 43 42 41 40 38 37 36 33
3 8 4 9 13 16 17 16 27 26 29 43 37 37 50 55 55 49 48 51 54 56 59 59 60 59 58 63 63 60 57 56 54 52 51 50 49 46 47 48 48 43 46 46 44 41 41 39 37
7 5 9 13 19 5 12 12 21 10 12 21 27 33 44 53 56 54 49 45 49 52 55 60 63 62 59 62 63 66 66 65 63 60 58 56 54 52 52 53 50 46 48 49 47 45 45 43 40
13 8 8 10 1 5 7 18 16 19 19 32 36 32 34 55 62 54 52 50 48 48 53 57 61 61 59 59 61 65 71 74 73 71 69 66 63 61 59 58 56 54 55 54 52 50 47 47 43
9 2 3 6 7 4 13 11 26 31 29 38 48 46 48 44 48 44 57 63 61 57 55 55 55 58 62 67 70 72 75 73 75 76 73 72 67 64 63 63 60 58 60 59 56 53 51 51 48
9 5 10 10 9 2 11 16 20 19 22 49 58 63 61 58 58 52 46 44 67 67 64 62 64 65 64 66 67 71 72 74 73 73 72 65 66 67 68 67 65 61 62 62 62 61 59 56 49
8 8 7 9 8 5 9 13 14 16 18 35 45 55 64 78 69 69 66 57 50 70 76 73 71 69 67 66 69 73 75 79 79 80 75 70 69 67 69 69 67 65 63 66 64 67 65 63 57
6 7 5 5 4 7 5 12 10 12 16 11 35 42 45 55 71 75 67 65 60 57 63 84 80 78 74 71 76 76 77 82 82 79 77 75 69 70 72 72 70 68 68 68 68 67 70 66 66
10 3 6 4 4 4 2 7 12 6 12 19 28 32 38 45 48 49 54 58 61 64 62 55 67 87 87 87 87 84 84 82 79 82 84 79 77 76 74 73 73 73 72 72 71 70 74 76 70
12 9 13 8 6 6 14 11 9 10 16 11 13 25 26 34 35 34 35 35 38 44 49 52 55 56 56 70 86 93 94 92 88 88 90 86 81 77 74 74 76 75 76 76 76 72 74 78 77
8 12 3 4 0 12 6 11 13 16 20 10 20 31 27 22 18 16 19 22 24 26 34 38 43 49 50 56 64 74 85 91 95 92 94 92 86 82 76 75 77 80 78 79 79 77 72 80 83
12 13 9 14 9 6 3 13 11 12 27 18 11 14 15 16 16 18 21 26 29 32 33 38 45 50 46 52 62 64 64 75 85 89 90 92 93 86 79 75 77 77 75 75 76 76 75 75 74
10 17 8 5 5 5 8 12 16 10 11 11 17 22 25 26 25 22 24 27 29 27 26 26 24 27 34 40 46 53 62 73 80 81 81 84 86 85 81 75 74 74 72 72 73 75 79 78 74
6 9 4 4 5 7 9 8 11 14 9 10 19 39 46 49 39 28 32 32 28 24 17 13 14 15 18 22 27 31 35 45 60 70 75 74 73 72 75 76 78 79 74 71 74 77 75 75 77
5 5 5 4 8 7 4 10 10 7 12 15 22 42 53 56 55 52 43 31 28 20 10 10 15 23 27 29 29 30 31 32 35 44 52 55 58 61 66 69 70 70 71 71 75 74 76 76 75
0 5 9 7 6 6 5 19 2 15 14 26 26 48 51 57 60 54 41 39 41 16 12 9 16 38 41 38 38 38 38 37 38 36 40 48 54 54 56 58 61 62 66 67 69 72 76 75 73
Wind_Direction_500mb
0 285 210 309 56 64 290 269 171 117 61 97 94 119 123 79 139 202 142 159 170 171 164 164 158 157 164 160 150 152 153 155 154 154 145 136 128 125 119 116 110 107 107 103 99 93 89 88 88
352 343 242 88 86 71 272 273 146 177 130 111 102 102 75 120 151 152 149 166 180 173 167 167 164 162 167 167 159 158 165 161 152 145 152 151 149 132 123 120 120 116 113 111 105 97 93 90 88
347 14 311 93 103 170 176 184 162 129 134 121 94 87 105 144 186 167 163 162 178 176 171 172 171 170 170 172 172 169 177 169 161 158 154 161 163 159 138 122 120 122 122 122 111 105 99 93 92
350 151 62 89 212 262 179 178 172 127 108 103 129 72 92 198 171 176 167 169 177 179 177 178 175 176 176 176 181 184 190 190 191 188 182 174 184 183 171 150 135 125 130 127 119 115 109 104 100
48 71 41 188 204 275 105 165 154 131 140 130 151 161 103 144 176 173 171 175 184 181 181 179 178 179 182 182 186 191 194 196 197 197 202 196 188 192 196 195 187 157 144 136 139 133 125 121 116
57 45 29 303 226 126 122 175 157 134 160 146 109 132 152 183 189 187 184 181 184 186 184 184 185 186 187 190 193 195 197 197 199 203 203 200 201 207 209 210 212 214 195 192 204 209 209 211 208
78 78 233 324 197 184 191 166 157 157 141 165 150 110 169 175 195 198 191 188 184 193 188 190 193 196 196 199 203 205 205 205 208 209 213 210 211 215 218 222 224 223 225 229 236 243 250 258 267
353 94 10 323 216 269 188 144 131 146 186 146 166 167 180 182 195 189 189 193 197 201 203 198 199 202 204 205 207 212 214 217 210 213 214 211 203 202 208 219 225 231 237 245 250 255 260 267 272
295 56 50 350 344 223 180 122 115 130 145 164 164 171 213 179 184 183 186 197 206 208 210 208 204 205 208 212 212 213 216 218 220 221 224 222 209 210 213 219 227 233 241 250 258 265 268 270 273
103 111 190 264 8 309 191 176 149 142 146 171 182 186 176 172 179 191 195 200 206 211 211 212 211 209 210 213 216 217 219 219 222 225 228 228 223 227 233 231 233 235 243 252 260 269 274 276 276
181 195 196 263 11 21 270 280 193 141 236 217 213 189 180 179 185 198 206 212 215 215 218 215 214 215 215 217 219 221 221 222 224 226 230 231 232 233 239 238 239 241 249 257 260 265 271 274 276
243 243 214 258 332 308 266 316 231 209 223 230 247 228 191 190 195 203 211 215 219 224 228 225 223 223 223 222 225 227 227 227 229 230 232 233 237 241 244 246 245 250 258 262 265 265 269 269 273
201 280 247 234 309 281 245 245 257 257 246 250 260 213 209 207 211 214 216 220 223 226 228 231 235 229 228 225 226 228 230 232 234 237 239 240 242 247 251 252 254 258 260 262 264 267 269 273 275
214 264 315 321 300 273 269 284 269 247 251 239 235 225 219 220 221 217 217 222 227 232 233 234 237 235 232 233 231 231 233 237 240 240 242 244 246 248 252 255 258 261 265 266 266 270 272 275 278
277 321 355 237 260 245 215 298 239 251 245 256 230 227 223 226 225 229 230 225 230 234 236 235 236 237 239 243 243 241 240 241 243 244 244 245 246 247 249 252 256 259 262 263 264 266 271 275 279
204 55 15 274 199 227 170 259 261 272 259 252 246 234 226 230 230 238 239 238 237 238 238 237 238 239 241 243 245 247 246 246 248 248 248 249 250 251 251 253 256 258 258 262 263 266 269 271 273
350 193 200 297 214 127 174 256 268 257 258 285 280 258 237 234 235 240 242 244 243 242 243 239 236 237 238 240 243 247 250 252 254 254 255 255 255 255 256 257 259 258 256 257 259 261 264 267 270
198 202 234 228 321 198 211 252 260 250 304 300 295 287 266 245 240 247 247 246 245 244 243 243 240 240 239 241 243 245 248 251 253 254 255 255 256 257 259 260 260 259 257 257 256 259 261 266 269
105 167 287 277 271 194 238 242 267 276 287 283 283 280 275 270 257 251 249 248 246 246 243 244 245 244 241 239 240 240 243 247 251 253 253 252 253 254 257 260 259 256 256 259 259 259 260 261 264
268 214 248 280 293 197 289 267 269 276 257 267 270 274 274 267 264 255 249 251 246 247 246 246 247 246 246 247 249 249 251 252 254 257 257 253 253 254 253 254 257 257 256 256 256 252 254 256 254
239 189 206 229 334 304 330 272 238 269 250 263 266 268 268 263 259 256 255 253 255 249 247 247 249 252 253 253 253 254 254 256 258 258 259 257 256 257 257 258 259 260 255 254 255 251 249 252 253
252 203 212 258 68 235 47 286 292 256 268 244 273 271 273 265 257 259 262 260 259 259 258 250 252 252 255 256 253 255 261 262 267 270 271 269 265 265 264 261 259 258 256 255 255 253 248 245 251
219 166 108 164 174 358 290 282 261 266 285 267 267 267 264 270 272 272 271 266 262 263 267 262 258 253 251 252 255 259 261 266 274 271 271 269 269 270 267 261 261 259 258 257 254 254 247 246 246
159 86 40 48 85 282 192 198 212 216 224 252 279 277 295 306 286 280 279 275 267 263 264 262 260 260 259 258 257 257 261 265 266 269 269 272 273 271 267 265 262 259 261 262 261 257 252 245 248
127 116 37 357 277 234 263 201 267 286 268 242 275 300 313 310 309 309 305 298 289 276 265 261 263 261 259 257 257 258 260 262 263 267 270 270 270 270 271 269 265 262 264 265 264 262 255 247 244
186 167 172 201 199 256 119 229 249 244 280 307 324 315 331 345 327 314 306 301 294 278 260 262 267 266 263 261 260 260 260 259 261 263 265 269 271 272 275 272 268 264 264 264 263 262 261 253 246
197 214 162 61 39 59 239 292 295 317 293 57 52 43 31 10 356 343 335 325 314 302 286 284 290 286 279 275 271 267 263 259 259 262 264 266 269 271 270 269 267 265 264 261 259 258 258 250 242
175 158 170 123 211 237 267 270 235 294 42 30 20 21 18 15 4 8 4 354 347 336 329 306 307 319 322 315 305 296 286 273 266 264 263 265 268 269 267 265 266 265 263 257 255 256 250 247 245
156 192 200 171 169 198 261 260 225 249 94 48 39 27 4 359 1 1 345 349 351 349 20 30 31 20 6 353 342 332 321 304 285 275 269 268 270 267 266 264 263 261 261 260 259 254 248 244 244
116 249 185 149 227 244 257 257 349 107 50 50 20 353 350 348 340 343 352 353 346 328 330 349 10 346 343 340 341 345 338 323 312 294 280 274 270 267 265 264 262 260 260 258 254 250 246 245 243
Wind_Speed_850mb
25 5 2 2 7 9 2 6 3 5 6 11 17 18 18 11 5 5 23 42 33 44 42 38 31 27 31 34 32 26 22 23 24 18 17 17 17 16 16 17 21 24 23 24 24 24 25 24 23
20 2 3 2 8 6 8 3 7 4 16 33 33 22 8 4 10 18 46 33 24 44 42 39 34 32 31 33 33 28 21 21 21 18 15 13 13 13 13 13 17 19 19 19 20 22 22 21 21
16 3 1 7 6 8 9 7 12 13 17 11 9 15 8 13 16 30 32 39 36 46 41 40 34 31 31 33 34 33 28 19 16 14 13 13 12 10 9 10 11 15 16 15 16 17 17 17 17
13 3 4 6 3 6 10 15 10 17 12 9 20 12 7 7 24 33 38 39 38 46 41 39 35 32 29 30 31 31 28 23 18 13 11 11 12 10 8 6 6 9 12 12 12 11 12 12 13
8 3 4 2 7 3 2 22 25 9 14 16 15 7 6 20 20 29 43 40 41 50 44 41 35 31 28 26 28 29 28 25 21 18 15 13 13 13 11 9 6 6 7 7 6 6 6 6 6
6 4 5 1 4 5 4 22 19 11 13 17 14 21 13 24 25 30 40 38 39 48 47 41 36 32 29 27 27 29 28 26 23 20 17 18 17 16 14 12 10 8 5 5 5 5 3 3 2
6 6 5 8 6 6 10 20 15 15 15 10 27 10 9 30 31 30 41 36 32 39 47 41 37 33 30 28 27 28 28 26 24 23 21 21 21 19 17 15 13 12 10 9 9 9 8 7 7
7 7 5 6 6 6 7 12 14 25 9 17 16 14 13 39 35 43 40 35 31 33 39 41 39 35 33 31 30 29 27 25 23 21 22 22 19 16 16 16 15 13 12 11 11 11 11 11 11
5 6 2 8 11 3 10 4 6 11 18 5 8 14 9 37 52 51 49 44 40 38 36 39 40 37 35 34 34 34 33 30 28 26 23 20 20 17 17 16 15 13 12 12 12 13 13 14 14
6 6 9 3 2 5 10 9 14 8 10 5 10 14 18 40 65 64 61 58 53 48 43 40 42 40 39 38 37 37 37 35 33 32 31 28 26 25 22 21 20 18 17 15 14 15 16 16 16
8 9 8 2 10 13 5 3 9 15 6 19 28 29 36 42 56 65 61 58 54 49 46 45 44 44 42 41 39 39 39 39 38 38 36 34 33 32 29 26 24 22 21 20 20 19 18 18 18
5 15 7 5 8 3 3 8 6 19 13 7 28 31 41 47 50 61 64 60 57 52 50 44 41 47 45 42 42 40 41 41 42 41 40 40 38 37 34 31 29 28 27 24 22 21 21 21 22
8 5 7 7 13 12 11 11 8 18 19 21 15 39 44 46 46 46 55 56 54 53 51 50 47 51 49 48 45 44 43 44 42 43 43 43 42 40 38 37 35 32 31 29 28 27 27 27 26
6 4 6 5 12 11 6 5 3 16 21 19 22 35 51 50 49 48 57 60 60 57 55 51 52 54 49 49 48 47 44 42 43 46 46 45 44 43 43 43 41 39 38 35 34 33 33 32 31
8 5 8 7 10 9 1 9 19 44 32 18 25 36 51 54 51 53 49 57 57 57 57 57 54 54 56 55 53 50 46 47 48 47 46 46 45 46 46 47 47 43 42 41 40 38 37 36 33
3 8 4 9 13 16 17 16 27 26 29 43 37 37 50 55 55 49 48 51 54 56 59 59 60 59 58 63 63 60 57 56 54 52 51 50 49 46 47 48 48 43 46 46 44 41 41 39 37
7 5 9 13 19 5 12 12 21 10 12 21 27 33 44 53 56 54 49 45 49 52 55 60 63 62 59 62 63 66 66 65 63 60 58 56 54 52 52 53 50 46 48 49 47 45 45 43 40
13 8 8 10 1 5 7 18 16 19 19 32 36 32 34 55 62 54 52 50 48 48 53 57 61 61 59 59 61 65 71 74 73 71 69 66 63 61 59 58 56 54 55 54 52 50 47 47 43
9 2 3 6 7 4 13 11 26 31 29 38 48 46 48 44 48 44 57 63 61 57 55 55 55 58 62 67 70 72 75 73 75 76 73 72 67 64 63 63 60 58 60 59 56 53 51 51 48
9 5 10 10 9 2 11 16 20 19 22 49 58 63 61 58 58 52 46 44 67 67 64 62 64 65 64 66 67 71 72 74 73 73 72 65 66 67 68 67 65 61 62 62 62 61 59 56 49
8 8 7 9 8 5 9 13 14 16 18 35 45 55 64 78 69 69 66 57 50 70 76 73 71 69 67 66 69 73 75 79 79 80 75 70 69 67 69 69 67 65 63 66 64 67 65 63 57
6 7 5 5 4 7 5 12 10 12 16 11 35 42 45 55 71 75 67 65 60 57 63 84 80 78 74 71 76 76 77 82 82 79 77 75 69 70 72 72 70 68 68 68 68 67 70 66 66
10 3 6 4 4 4 2 7 12 6 12 19 28 32 38 45 48 49 54 58 61 64 62 55 67 87 87 87 87 84 84 82 79 82 84 79 77 76 74 73 73 73 72 72 71 70 74 76 70
12 9 13 8 6 6 14 11 9 10 16 11 13 25 26 34 35 34 35 35 38 44 49 52 55 56 56 70 86 93 94 92 88 88 90 86 81 77 74 74 76 75 76 76 76 72 74 78 77
8 12 3 4 0 12 6 11 13 16 20 10 20 31 27 22 18 16 19 22 24 26 34 38 43 49 50 56 64 74 85 91 95 92 94 92 86 82 76 75 77 80 78 79 79 77 72 80 83
12 13 9 14 9 6 3 13 11 12 27 18 11 14 15 16 16 18 21 26 29 32 33 38 45 50 46 52 62 64 64 75 85 89 90 92 93 86 79 75 77 77 75 75 76 76 75 75 74
10 17 8 5 5 5 8 12 16 10 11 11 17 22 25 26 25 22 24 27 29 27 26 26 24 27 34 40 46 53 62 73 80 81 81 84 86 85 81 75 74 74 72 72 73 75 79 78 74
6 9 4 4 5 7 9 8 11 14 9 10 19 39 46 49 39 28 32 32 28 24 17 13 14 15 18 22 27 31 35 45 60 70 75 74 73 72 75 76 78 79 74 71 74 77 75 75 77
5 5 5 4 8 7 4 10 10 7 12 15 22 42 53 56 55 52 43 31 28 20 10 10 15 23 27 29 29 30 31 32 35 44 52 55 58 61 66 69 70 70 71 71 75 74 76 76 75
0 5 9 7 6 6 5 19 2 15 14 26 26 48 51 57 60 54 41 39 41 16 12 9 16 38 41 38 38 38 38 37 38 36 40 48 54 54 56 58 61 62 66 67 69 72 76 75 73
Wind_Direction_850mb
0 285 210 309 56 64 290 269 171 117 61 97 94 119 123 79 139 202 142 159 170 171 164 164 158 157 164 160 150 152 153 155 154 154 145 136 128 125 119 116 110 107 107 103 99 93 89 88 88
352 343 242 88 86 71 272 273 146 177 130 111 102 102 75 120 151 152 149 166 180 173 167 167 164 162 167 167 159 158 165 161 152 145 152 151 149 132 123 120 120 116 113 111 105 97 93 90 88
347 14 311 93 103 170 176 184 162 129 134 121 94 87 105 144 186 167 163 162 178 176 171 172 171 170 170 172 172 169 177 169 161 158 154 161 163 159 138 122 120 122 122 122 111 105 99 93 92
350 151 62 89 212 262 179 178 172 127 108 103 129 72 92 198 171 176 167 169 177 179 177 178 175 176 176 176 181 184 190 190 191 188 182 174 184 183 171 150 135 125 130 127 119 115 109 104 100
48 71 41 188 204 275 105 165 154 131 140 130 151 161 103 144 176 173 171 175 184 181 181 179 178 179 182 182 186 191 194 196 197 197 202 196 188 192 196 195 187 157 144 136 139 133 125 121 116
57 45 29 303 226 126 122 175 157 134 160 146 109 132 152 183 189 187 184 181 184 186 184 184 185 186 187 190 193 195 197 197 199 203 203 200 201 207 209 210 212 214 195 192 204 209 209 211 208
78 78 233 324 197 184 191 166 157 157 141 165 150 110 169 175 195 198 191 188 184 193 188 190 193 196 196 199 203 205 205 205 208 209 213 210 211 215 218 222 224 223 225 229 236 243 250 258 267
353 94 10 323 216 269 188 144 131 146 186 146 166 167 180 182 195 189 189 193 197 201 203 198 199 202 204 205 207 212 214 217 210 213 214 211 203 202 208 219 225 231 237 245 250 255 260 267 272
295 56 50 350 344 223 180 122 115 130 145 164 164 171 213 179 184 183 186 197 206 208 210 208 204 205 208 212 212 213 216 218 220 221 224 222 209 210 213 219 227 233 241 250 258 265 268 270 273
103 111 190 264 8 309 191 176 149 142 146 171 182 186 176 172 179 191 195 200 206 211 211 212 211 209 210 213 216 217 219 219 222 225 228 228 223 227 233 231 233 235 243 252 260 269 274 276 276
181 195 196 263 11 21 270 280 193 141 236 217 213 189 180 179 185 198 206 212 215 215 218 215 214 215 215 217 219 221 221 222 224 226 230 231 232 233 239 238 239 241 249 257 260 265 271 274 276
243 243 214 258 332 308 266 316 231 209 223 230 247 228 191 190 195 203 211 215 219 224 228 225 223 223 223 222 225 227 227 227 229 230 232 233 237 241 244 246 245 250 258 262 265 265 269 269 273
201 280 247 234 309 281 245 245 257 257 246 250 260 213 209 207 211 214 216 220 223 226 228 231 235 229 228 225 226 228 230 232 234 237 239 240 242 247 251 252 254 258 260 262 264 267 269 273 275
214 264 315 321 300 273 269 284 269 247 251 239 235 225 219 220 221 217 217 222 227 232 233 234 237 235 232 233 231 231 233 237 240 240 242 244 246 248 252 255 258 261 265 266 266 270 272 275 278
277 321 355 237 260 245 215 298 239 251 245 256 230 227 223 226 225 229 230 225 230 234 236 235 236 237 239 243 243 241 240 241 243 244 244 245 246 247 249 252 256 259 262 263 264 266 271 275 279
204 55 15 274 199 227 170 259 261 272 259 252 246 234 226 230 230 238 239 238 237 238 238 237 238 239 241 243 245 247 246 246 248 248 248 249 250 251 251 253 256 258 258 262 263 266 269 271 273
350 193 200 297 214 127 174 256 268 257 258 285 280 258 237 234 235 240 242 244 243 242 243 239 236 237 238 240 243 247 250 252 254 254 255 255 255 255 256 257 259 258 256 257 259 261 264 267 270
198 202 234 228 321 198 211 252 260 250 304 300 295 287 266 245 240 247 247 246 245 244 243 243 240 240 239 241 243 245 248 251 253 254 255 255 256 257 259 260 260 259 257 257 256 259 261 266 269
105 167 287 277 271 194 238 242 267 276 287 283 283 280 275 270 257 251 249 248 246 246 243 244 245 244 241 239 240 240 243 247 251 253 253 252 253 254 257 260 259 256 256 259 259 259 260 261 264
268 214 248 280 293 197 289 267 269 276 257 267 270 274 274 267 264 255 249 251 246 247 246 246 247 246 246 247 249 249 251 252 254 257 257 253 253 254 253 254 257 257 256 256 256 252 254 256 254
239 189 206 229 334 304 330 272 238 269 250 263 266 268 268 263 259 256 255 253 255 249 247 247 249 252 253 253 253 254 254 256 258 258 259 257 256 257 257 258 259 260 255 254 255 251 249 252 253
252 203 212 258 68 235 47 286 292 256 268 244 273 271 273 265 257 259 262 260 259 259 258 250 252 252 255 256 253 255 261 262 267 270 271 269 265 265 264 261 259 258 256 255 255 253 248 245 251
219 166 108 164 174 358 290 282 261 266 285 267 267 267 264 270 272 272 271 266 262 263 267 262 258 253 251 252 255 259 261 266 274 271 271 269 269 270 267 261 261 259 258 257 254 254 247 246 246
159 86 40 48 85 282 192 198 212 216 224 252 279 277 295 306 286 280 279 275 267 263 264 262 260 260 259 258 257 257 261 265 266 269 269 272 273 271 267 265 262 259 261 262 261 257 252 245 248
127 116 37 357 277 234 263 201 267 286 268 242 275 300 313 310 309 309 305 298 289 276 265 261 263 261 259 257 257 258 260 262 263 267 270 270 270 270 271 269 265 262 264 265 264 262 255 247 244
186 167 172 201 199 256 119 229 249 244 280 307 324 315 331 345 327 314 306 301 294 278 260 262 267 266 263 261 260 260 260 259 261 263 265 269 271 272 275 272 268 264 264 264 263 262 261 253 246
197 214 162 61 39 59 239 292 295 317 293 57 52 43 31 10 356 343 335 325 314 302 286 284 290 286 279 275 271 267 263 259 259 262 264 266 269 271 270 269 267 265 264 261 259 258 258 250 242
175 158 170 123 211 237 267 270 235 294 42 30 20 21 18 15 4 8 4 354 347 336 329 306 307 319 322 315 305 296 286 273 266 264 263 265 268 269 267 265 266 265 263 257 255 256 250 247 245
156 192 200 171 169 198 261 260 225 249 94 48 39 27 4 359 1 1 345 349 351 349 20 30 31 20 6 353 342 332 321 304 285 275 269 268 270 267 266 264 263 261 261 260 259 254 248 244 244
116 249 185 149 227 244 257 257 349 107 50 50 20 353 350 348 340 343 352 353 346 328 330 349 10 346 343 340 341 345 338 323 312 294 280 274 270 267 265 264 262 260 260 258 254 250 246 245 243